AFR848 LFPG-FGSL

Flight info

Callsign AFR848
Flight time N/A
Altitude 37000
Route OKASI DCT PESAN DCT KANIG N855 POS/N0470F390 N855 GENIO N859 MOGIL UZ333 ZEM/N0463F380 UM989 BSA/N0459F390 UR985 IMN M999 SEB M214 GARIN UM214 ILDOR/N0464F400 DCT FL UG857 DLA
Aircraft A332/H-SDE3GHIJ2J3J5M1RVWXY/LB2D1

Departure

Time 2026-05-08 10:45
Airport Charles de Gaulle International Airport (LFPG)

Arrival

Time N/A
Airport Malabo International Airport (FGSL)
Time Latitude Longitude Altitude Speed Heading
2026-05-08 10:00 49.00574 2.58968 358 ft 0 kts 85°
2026-05-08 10:29 49.00574 2.58966 358 ft 2 kts 85°
2026-05-08 10:29 49.00572 2.58929 359 ft 4 kts 85°
2026-05-08 10:30 49.00570 2.58887 361 ft 4 kts 85°
2026-05-08 10:30 49.00570 2.58854 363 ft 4 kts 115°
2026-05-08 10:30 49.00587 2.58834 365 ft 4 kts 172°
2026-05-08 10:30 49.00614 2.58831 360 ft 4 kts 179°
2026-05-08 10:31 49.00626 2.58830 358 ft 0 kts 175°
2026-05-08 10:36 49.00626 2.58831 358 ft 0 kts 175°
2026-05-08 10:36 49.00607 2.58833 358 ft 6 kts 175°
2026-05-08 10:36 49.00549 2.58840 366 ft 11 kts 175°
2026-05-08 10:36 49.00453 2.58851 363 ft 16 kts 175°
2026-05-08 10:37 49.00325 2.58867 362 ft 20 kts 175°
2026-05-08 10:37 49.00189 2.58883 364 ft 19 kts 175°
2026-05-08 10:37 49.00077 2.58912 367 ft 14 kts 149°
2026-05-08 10:37 49.00005 2.59002 363 ft 12 kts 165°
2026-05-08 10:38 48.99956 2.58926 367 ft 11 kts 255°
2026-05-08 10:38 48.99951 2.58817 362 ft 10 kts 275°
2026-05-08 10:38 48.99992 2.58742 358 ft 9 kts 328°
2026-05-08 10:38 49.00027 2.58667 362 ft 9 kts 281°
2026-05-08 10:39 49.00024 2.58553 364 ft 16 kts 265°
2026-05-08 10:39 49.00014 2.58346 363 ft 21 kts 265°
2026-05-08 10:39 49.00002 2.58127 366 ft 21 kts 265°
2026-05-08 10:39 48.99990 2.57910 366 ft 20 kts 265°
2026-05-08 10:40 48.99980 2.57698 358 ft 20 kts 265°
2026-05-08 10:40 48.99968 2.57485 358 ft 20 kts 266°
2026-05-08 10:40 48.99957 2.57272 364 ft 20 kts 265°
2026-05-08 10:40 48.99946 2.57062 364 ft 20 kts 265°
2026-05-08 10:41 48.99937 2.56894 358 ft 14 kts 265°
2026-05-08 10:41 48.99929 2.56743 364 ft 14 kts 265°
2026-05-08 10:41 48.99920 2.56590 365 ft 15 kts 265°
2026-05-08 10:41 48.99911 2.56435 363 ft 15 kts 265°
2026-05-08 10:42 48.99904 2.56281 360 ft 15 kts 265°
2026-05-08 10:42 48.99896 2.56124 358 ft 15 kts 265°
2026-05-08 10:42 48.99889 2.55967 364 ft 15 kts 274°
2026-05-08 10:42 48.99889 2.55823 362 ft 11 kts 230°
2026-05-08 10:43 48.99819 2.55799 364 ft 10 kts 181°
2026-05-08 10:43 48.99752 2.55802 363 ft 6 kts 174°
2026-05-08 10:43 48.99728 2.55807 362 ft 0 kts 172°
2026-05-08 10:43 48.99727 2.55807 362 ft 1 kts 172°
2026-05-08 10:44 48.99683 2.55816 360 ft 11 kts 172°
2026-05-08 10:44 48.99608 2.55872 359 ft 13 kts 115°
2026-05-08 10:44 48.99610 2.56044 361 ft 29 kts 86°
2026-05-08 10:44 48.99643 2.56642 362 ft 84 kts 85°
2026-05-08 10:45 48.99704 2.57794 365 ft 132 kts 85°
2026-05-08 10:45 48.99788 2.59399 457 ft 164 kts 85°
2026-05-08 10:45 48.99850 2.60557 798 ft 167 kts 86°
2026-05-08 10:45 48.99956 2.62333 1497 ft 168 kts 85°
2026-05-08 10:46 49.00067 2.64136 2078 ft 172 kts 84°
2026-05-08 10:46 49.00180 2.65966 2520 ft 174 kts 85°
2026-05-08 10:46 49.00269 2.67790 3042 ft 171 kts 85°
2026-05-08 10:46 49.00351 2.69609 3469 ft 175 kts 85°
2026-05-08 10:47 49.00440 2.71527 3714 ft 189 kts 85°
2026-05-08 10:47 49.00545 2.73631 3892 ft 209 kts 85°
2026-05-08 10:47 49.00660 2.75940 4103 ft 228 kts 85°
2026-05-08 10:47 49.00640 2.78456 4364 ft 247 kts 95°
2026-05-08 10:48 49.00405 2.81112 4776 ft 258 kts 98°
2026-05-08 10:48 49.00120 2.83807 5302 ft 264 kts 99°
2026-05-08 10:48 48.99823 2.86582 5908 ft 268 kts 99°
2026-05-08 10:48 48.99523 2.89407 6508 ft 273 kts 99°
2026-05-08 10:49 48.99219 2.92287 7087 ft 277 kts 99°
2026-05-08 10:49 48.98903 2.95199 7706 ft 281 kts 102°
2026-05-08 10:49 48.98235 2.98006 8278 ft 285 kts 123°
2026-05-08 10:49 48.96858 3.00154 8885 ft 286 kts 151°
2026-05-08 10:50 48.94999 3.01103 9544 ft 283 kts 178°
2026-05-08 10:50 48.93076 3.00693 10162 ft 282 kts 202°
2026-05-08 10:50 48.91293 2.99329 10508 ft 294 kts 212°
2026-05-08 10:50 48.89504 2.97671 10792 ft 308 kts 213°
2026-05-08 10:51 48.87653 2.95932 11254 ft 316 kts 212°
2026-05-08 10:51 48.85767 2.94185 11822 ft 319 kts 212°
2026-05-08 10:51 48.83860 2.92436 12416 ft 322 kts 212°
2026-05-08 10:51 48.81938 2.90687 13014 ft 324 kts 211°
2026-05-08 10:52 48.79971 2.88904 13613 ft 327 kts 211°
2026-05-08 10:52 48.78033 2.87152 14152 ft 329 kts 211°
2026-05-08 10:52 48.76056 2.85368 14656 ft 331 kts 211°
2026-05-08 10:52 48.74063 2.83571 15203 ft 335 kts 211°
2026-05-08 10:53 48.72052 2.81762 15798 ft 337 kts 211°
2026-05-08 10:53 48.70028 2.79943 16382 ft 339 kts 211°
2026-05-08 10:53 48.67995 2.78117 16892 ft 342 kts 211°
2026-05-08 10:53 48.65941 2.76274 17450 ft 344 kts 211°
2026-05-08 10:54 48.63871 2.74418 17975 ft 347 kts 211°
2026-05-08 10:54 48.61785 2.72549 18511 ft 349 kts 211°
2026-05-08 10:54 48.59684 2.70670 18980 ft 352 kts 211°
2026-05-08 10:54 48.57575 2.68786 19444 ft 354 kts 211°
2026-05-08 10:55 48.55444 2.66883 19894 ft 356 kts 211°
2026-05-08 10:55 48.53335 2.65001 20359 ft 358 kts 211°